Time,TemperatureF,DewpointF,PressureIn,WindDirection,WindDirectionDegrees,WindSpeedMPH,WindSpeedGustMPH,Humidity,HourlyPrecipIn,Conditions,Clouds,dailyrainin,SoftwareType,DateUTC
2013-02-08 00:00:00,22.2,8.0,29.11,WNW,292,4.0,6.0,46,0.00,,,0.00,Rainwise IP-100,2013-02-08 05:00:00,
2013-02-08 00:05:00,22.2,8.0,29.11,SW,225,2.0,5.0,46,0.00,,,0.00,Rainwise IP-100,2013-02-08 05:05:00,
2013-02-08 00:10:00,22.2,4.0,29.11,WSW,247,4.0,7.0,44,0.00,,,0.00,Rainwise IP-100,2013-02-08 05:10:00,
2013-02-08 00:15:00,22.2,8.0,29.11,WNW,292,0.0,6.0,46,0.00,,,0.00,Rainwise IP-100,2013-02-08 05:15:00,
2013-02-08 00:20:00,22.1,8.0,29.11,West,270,3.0,6.0,46,0.00,,,0.00,Rainwise IP-100,2013-02-08 05:20:00,
2013-02-08 00:25:00,22.1,8.0,29.10,West,270,2.0,6.0,46,0.00,,,0.00,Rainwise IP-100,2013-02-08 05:25:00,
2013-02-08 00:30:00,22.1,8.0,29.11,West,270,1.0,5.0,46,0.00,,,0.00,Rainwise IP-100,2013-02-08 05:30:00,
2013-02-08 00:35:00,22.1,8.0,29.10,WNW,292,2.0,5.0,48,0.00,,,0.00,Rainwise IP-100,2013-02-08 05:35:00,
2013-02-08 00:40:00,22.0,8.0,29.10,West,270,2.0,7.0,46,0.00,,,0.00,Rainwise IP-100,2013-02-08 05:40:00,
2013-02-08 00:45:00,22.0,8.0,29.10,SW,225,4.0,4.0,46,0.00,,,0.00,Rainwise IP-100,2013-02-08 05:45:00,
2013-02-08 00:50:00,21.9,8.0,29.10,West,270,4.0,5.0,47,0.00,,,0.00,Rainwise IP-100,2013-02-08 05:50:00,
2013-02-08 00:55:00,21.9,4.0,29.09,WNW,292,1.0,6.0,44,0.00,,,0.00,Rainwise IP-100,2013-02-08 05:55:00,
2013-02-08 01:00:00,21.9,8.0,29.09,West,270,1.0,7.0,46,0.00,,,0.00,Rainwise IP-100,2013-02-08 06:00:00,
2013-02-08 01:05:00,21.9,8.0,29.09,SW,225,0.0,4.0,46,0.00,,,0.00,Rainwise IP-100,2013-02-08 06:05:00,
2013-02-08 01:10:00,21.9,4.0,29.08,WNW,292,3.0,6.0,44,0.00,,,0.00,Rainwise IP-100,2013-02-08 06:10:00,
2013-02-08 01:15:00,21.9,4.0,29.08,West,270,3.0,6.0,45,0.00,,,0.00,Rainwise IP-100,2013-02-08 06:15:00,
2013-02-08 01:20:00,21.9,8.0,29.08,WSW,247,0.0,7.0,46,0.00,,,0.00,Rainwise IP-100,2013-02-08 06:20:00,
2013-02-08 01:25:00,21.8,8.0,29.08,SW,225,5.0,6.0,46,0.00,,,0.00,Rainwise IP-100,2013-02-08 06:25:00,
2013-02-08 01:30:00,21.8,8.0,29.08,SW,225,0.0,6.0,46,0.00,,,0.00,Rainwise IP-100,2013-02-08 06:30:00,
2013-02-08 01:33:00,21.8,8.0,29.08,SW,225,5.0,7.0,46,0.00,,,0.00,Rainwise IP-100,2013-02-08 06:33:00,
2013-02-08 01:34:00,21.8,8.0,29.08,WSW,247,3.0,7.0,46,0.00,,,0.00,Rainwise IP-100,2013-02-08 06:34:00,
2013-02-08 01:35:00,21.8,8.0,29.08,WSW,247,3.0,7.0,46,0.00,,,0.00,Rainwise IP-100,2013-02-08 06:35:00,
2013-02-08 01:40:00,21.8,8.0,29.08,WSW,247,2.0,11.0,47,0.00,,,0.00,Rainwise IP-100,2013-02-08 06:40:00,
2013-02-08 01:45:00,21.8,8.0,29.08,ESE,112,1.0,7.0,47,0.00,,,0.00,Rainwise IP-100,2013-02-08 06:45:00,
2013-02-08 01:50:00,21.8,8.0,29.08,West,270,2.0,6.0,48,0.00,,,0.00,Rainwise IP-100,2013-02-08 06:50:00,
2013-02-08 01:55:00,21.7,8.0,29.08,SW,225,2.0,7.0,47,0.00,,,0.00,Rainwise IP-100,2013-02-08 06:55:00,
2013-02-08 02:00:00,21.7,8.0,29.08,West,270,7.0,7.0,48,0.00,,,0.00,Rainwise IP-100,2013-02-08 07:00:00,
2013-02-08 02:05:00,21.7,8.0,29.08,WNW,292,4.0,7.0,49,0.00,,,0.00,Rainwise IP-100,2013-02-08 07:05:00,
2013-02-08 02:10:00,21.7,8.0,29.08,WSW,247,3.0,7.0,51,0.00,,,0.00,Rainwise IP-100,2013-02-08 07:10:00,
2013-02-08 02:15:00,21.7,8.0,29.07,West,270,4.0,7.0,50,0.00,,,0.00,Rainwise IP-100,2013-02-08 07:15:00,
2013-02-08 02:20:00,21.6,8.0,29.07,WSW,247,4.0,4.0,50,0.00,,,0.00,Rainwise IP-100,2013-02-08 07:20:00,
2013-02-08 02:25:00,21.6,8.0,29.07,SW,225,1.0,6.0,50,0.00,,,0.00,Rainwise IP-100,2013-02-08 07:25:00,
2013-02-08 02:30:00,21.6,8.0,29.07,West,270,3.0,5.0,50,0.00,,,0.00,Rainwise IP-100,2013-02-08 07:30:00,
2013-02-08 02:35:00,21.6,8.0,29.06,WSW,247,1.0,4.0,51,0.00,,,0.00,Rainwise IP-100,2013-02-08 07:35:00,
2013-02-08 02:40:00,21.6,8.0,29.06,WSW,247,0.0,6.0,52,0.00,,,0.00,Rainwise IP-100,2013-02-08 07:40:00,
2013-02-08 02:45:00,21.5,8.0,29.06,WSW,247,1.0,4.0,52,0.00,,,0.00,Rainwise IP-100,2013-02-08 07:45:00,
2013-02-08 02:50:00,21.5,8.0,29.06,WSW,247,2.0,6.0,52,0.00,,,0.00,Rainwise IP-100,2013-02-08 07:50:00,
2013-02-08 02:55:00,21.5,8.0,29.05,West,270,0.0,5.0,51,0.00,,,0.00,Rainwise IP-100,2013-02-08 07:55:00,
2013-02-08 03:00:00,21.5,8.0,29.05,WSW,247,3.0,5.0,53,0.00,,,0.00,Rainwise IP-100,2013-02-08 08:00:00,
2013-02-08 03:05:00,21.4,8.0,29.04,WSW,247,1.0,4.0,52,0.00,,,0.00,Rainwise IP-100,2013-02-08 08:05:00,
2013-02-08 03:10:00,21.4,8.0,29.04,WSW,247,2.0,7.0,53,0.00,,,0.00,Rainwise IP-100,2013-02-08 08:10:00,
2013-02-08 03:15:00,21.3,8.0,29.04,WSW,247,2.0,5.0,53,0.00,,,0.00,Rainwise IP-100,2013-02-08 08:15:00,
2013-02-08 03:20:00,21.3,8.0,29.04,West,270,2.0,3.0,53,0.00,,,0.00,Rainwise IP-100,2013-02-08 08:20:00,
2013-02-08 03:25:00,21.3,8.0,29.04,SW,225,0.0,6.0,55,0.00,,,0.00,Rainwise IP-100,2013-02-08 08:25:00,
2013-02-08 03:30:00,21.3,8.0,29.04,SW,225,0.0,4.0,56,0.00,,,0.00,Rainwise IP-100,2013-02-08 08:30:00,
2013-02-08 03:35:00,21.2,8.0,29.04,SW,225,0.0,2.0,56,0.00,,,0.00,Rainwise IP-100,2013-02-08 08:35:00,
2013-02-08 03:40:00,21.2,8.0,29.04,SSE,157,0.0,2.0,56,0.00,,,0.00,Rainwise IP-100,2013-02-08 08:40:00,
2013-02-08 03:45:00,21.2,8.0,29.04,West,270,0.0,3.0,58,0.00,,,0.00,Rainwise IP-100,2013-02-08 08:45:00,
2013-02-08 03:50:00,21.2,8.0,29.04,West,270,0.0,1.0,57,0.00,,,0.00,Rainwise IP-100,2013-02-08 08:50:00,
2013-02-08 03:55:00,21.2,11.0,29.03,North,360,0.0,3.0,61,0.00,,,0.00,Rainwise IP-100,2013-02-08 08:55:00,
2013-02-08 04:00:00,21.2,11.0,29.03,WSW,247,3.0,7.0,63,0.00,,,0.00,Rainwise IP-100,2013-02-08 09:00:00,
2013-02-08 04:05:00,21.3,11.0,29.03,WSW,247,1.0,6.0,65,0.00,,,0.00,Rainwise IP-100,2013-02-08 09:05:00,
2013-02-08 04:10:00,21.3,11.0,29.03,ESE,112,1.0,6.0,66,0.00,,,0.00,Rainwise IP-100,2013-02-08 09:10:00,
2013-02-08 04:15:00,21.4,11.0,29.02,WNW,292,3.0,6.0,67,0.00,,,0.00,Rainwise IP-100,2013-02-08 09:15:00,
2013-02-08 04:20:00,21.4,11.0,29.02,WSW,247,0.0,7.0,67,0.00,,,0.00,Rainwise IP-100,2013-02-08 09:20:00,
2013-02-08 04:25:00,21.4,11.0,29.02,West,270,3.0,6.0,67,0.00,,,0.00,Rainwise IP-100,2013-02-08 09:25:00,
2013-02-08 04:30:00,21.4,11.0,29.02,WSW,247,0.0,5.0,67,0.00,,,0.00,Rainwise IP-100,2013-02-08 09:30:00,
2013-02-08 04:35:00,21.4,11.0,29.02,West,270,2.0,4.0,68,0.00,,,0.00,Rainwise IP-100,2013-02-08 09:35:00,
2013-02-08 04:40:00,21.4,11.0,29.02,WSW,247,0.0,4.0,67,0.00,,,0.00,Rainwise IP-100,2013-02-08 09:40:00,
2013-02-08 04:45:00,21.5,14.0,29.02,SW,225,2.0,3.0,69,0.00,,,0.00,Rainwise IP-100,2013-02-08 09:45:00,
2013-02-08 04:50:00,21.5,14.0,29.02,WSW,247,1.0,4.0,69,0.00,,,0.00,Rainwise IP-100,2013-02-08 09:50:00,
2013-02-08 04:55:00,21.5,14.0,29.02,WSW,247,2.0,4.0,69,0.00,,,0.00,Rainwise IP-100,2013-02-08 09:55:00,
2013-02-08 05:00:00,21.5,14.0,29.02,West,270,2.0,4.0,69,0.00,,,0.00,Rainwise IP-100,2013-02-08 10:00:00,
2013-02-08 05:05:00,21.5,14.0,29.02,West,270,1.0,4.0,68,0.00,,,0.00,Rainwise IP-100,2013-02-08 10:05:00,
2013-02-08 05:10:00,21.5,14.0,29.02,WNW,292,2.0,4.0,70,0.00,,,0.00,Rainwise IP-100,2013-02-08 10:10:00,
2013-02-08 05:15:00,21.5,14.0,29.02,West,270,3.0,3.0,69,0.00,,,0.00,Rainwise IP-100,2013-02-08 10:15:00,
2013-02-08 05:20:00,21.5,14.0,29.02,WSW,247,1.0,5.0,70,0.00,,,0.00,Rainwise IP-100,2013-02-08 10:20:00,
2013-02-08 05:25:00,21.4,14.0,29.01,West,270,5.0,6.0,71,0.00,,,0.00,Rainwise IP-100,2013-02-08 10:25:00,
2013-02-08 05:30:00,21.4,14.0,29.01,WSW,247,0.0,5.0,71,0.00,,,0.00,Rainwise IP-100,2013-02-08 10:30:00,
2013-02-08 05:35:00,21.4,14.0,29.01,WSW,247,2.0,5.0,71,0.00,,,0.00,Rainwise IP-100,2013-02-08 10:35:00,
2013-02-08 05:40:00,21.4,14.0,29.00,West,270,1.0,6.0,72,0.00,,,0.00,Rainwise IP-100,2013-02-08 10:40:00,
2013-02-08 05:45:00,21.4,14.0,29.00,WSW,247,4.0,5.0,73,0.00,,,0.00,Rainwise IP-100,2013-02-08 10:45:00,
2013-02-08 05:50:00,21.4,14.0,29.00,WSW,247,3.0,6.0,74,0.00,,,0.00,Rainwise IP-100,2013-02-08 10:50:00,
2013-02-08 05:55:00,21.4,14.0,29.00,WNW,292,2.0,4.0,74,0.00,,,0.00,Rainwise IP-100,2013-02-08 10:55:00,
2013-02-08 06:00:00,21.4,14.0,29.00,West,270,1.0,5.0,74,0.00,,,0.00,Rainwise IP-100,2013-02-08 11:00:00,
2013-02-08 06:05:00,21.4,14.0,29.00,West,270,0.0,3.0,75,0.00,,,0.00,Rainwise IP-100,2013-02-08 11:05:00,
2013-02-08 06:10:00,21.4,14.0,29.00,West,270,2.0,4.0,76,0.00,,,0.00,Rainwise IP-100,2013-02-08 11:10:00,
2013-02-08 06:15:00,21.4,14.0,29.00,West,270,0.0,6.0,76,0.00,,,0.00,Rainwise IP-100,2013-02-08 11:15:00,
2013-02-08 06:20:00,21.4,14.0,29.00,West,270,1.0,5.0,77,0.00,,,0.00,Rainwise IP-100,2013-02-08 11:20:00,
2013-02-08 06:25:00,21.4,16.0,29.00,West,270,1.0,3.0,78,0.00,,,0.00,Rainwise IP-100,2013-02-08 11:25:00,
2013-02-08 06:30:00,21.4,14.0,28.99,West,270,1.0,2.0,77,0.00,,,0.00,Rainwise IP-100,2013-02-08 11:30:00,
2013-02-08 06:35:00,21.4,16.0,28.99,West,270,0.0,2.0,79,0.00,,,0.00,Rainwise IP-100,2013-02-08 11:35:00,
2013-02-08 06:40:00,21.4,16.0,28.99,West,270,1.0,2.0,79,0.00,,,0.00,Rainwise IP-100,2013-02-08 11:40:00,
2013-02-08 06:45:00,21.4,16.0,28.99,West,270,0.0,2.0,80,0.00,,,0.00,Rainwise IP-100,2013-02-08 11:45:00,
2013-02-08 06:50:00,21.3,16.0,28.98,West,270,0.0,1.0,79,0.00,,,0.00,Rainwise IP-100,2013-02-08 11:50:00,
2013-02-08 06:55:00,21.3,16.0,28.98,West,270,0.0,1.0,80,0.00,,,0.00,Rainwise IP-100,2013-02-08 11:55:00,
2013-02-08 07:00:00,21.3,16.0,28.98,West,270,1.0,3.0,82,0.00,,,0.00,Rainwise IP-100,2013-02-08 12:00:00,
2013-02-08 07:05:00,21.3,16.0,28.98,West,270,0.0,2.0,81,0.00,,,0.00,Rainwise IP-100,2013-02-08 12:05:00,
2013-02-08 07:10:00,21.3,16.0,28.98,West,270,0.0,0.0,81,0.00,,,0.00,Rainwise IP-100,2013-02-08 12:10:00,
2013-02-08 07:15:00,21.3,16.0,28.99,West,270,0.0,0.0,81,0.00,,,0.00,Rainwise IP-100,2013-02-08 12:15:00,
2013-02-08 07:20:00,21.3,16.0,28.99,West,270,0.0,0.0,81,0.00,,,0.00,Rainwise IP-100,2013-02-08 12:20:00,
2013-02-08 07:25:00,21.2,16.0,28.99,West,270,0.0,0.0,84,0.00,,,0.00,Rainwise IP-100,2013-02-08 12:25:00,
2013-02-08 07:30:00,21.3,16.0,28.99,West,270,0.0,0.0,84,0.00,,,0.00,Rainwise IP-100,2013-02-08 12:30:00,
2013-02-08 07:35:00,21.2,16.0,28.99,West,270,0.0,1.0,84,0.00,,,0.00,Rainwise IP-100,2013-02-08 12:35:00,
2013-02-08 07:40:00,21.2,16.0,28.99,SSE,157,0.0,2.0,83,0.00,,,0.00,Rainwise IP-100,2013-02-08 12:40:00,
2013-02-08 07:45:00,21.1,16.0,28.99,SSE,157,0.0,3.0,80,0.00,,,0.00,Rainwise IP-100,2013-02-08 12:45:00,
2013-02-08 07:50:00,21.1,16.0,28.99,SE,135,0.0,1.0,80,0.00,,,0.00,Rainwise IP-100,2013-02-08 12:50:00,
2013-02-08 07:55:00,21.1,16.0,28.99,SE,135,0.0,1.0,81,0.00,,,0.00,Rainwise IP-100,2013-02-08 12:55:00,
2013-02-08 08:00:00,21.1,16.0,28.99,SE,135,0.0,1.0,81,0.00,,,0.00,Rainwise IP-100,2013-02-08 13:00:00,
2013-02-08 08:05:00,21.2,16.0,28.98,SE,135,0.0,2.0,82,0.00,,,0.00,Rainwise IP-100,2013-02-08 13:05:00,
2013-02-08 08:10:00,21.2,16.0,28.99,SE,135,0.0,1.0,81,0.00,,,0.00,Rainwise IP-100,2013-02-08 13:10:00,
2013-02-08 08:15:00,21.3,16.0,28.99,SE,135,0.0,0.0,81,0.00,,,0.00,Rainwise IP-100,2013-02-08 13:15:00,
2013-02-08 08:20:00,21.4,16.0,28.97,SE,135,0.0,0.0,81,0.00,,,0.00,Rainwise IP-100,2013-02-08 13:20:00,
2013-02-08 08:25:00,21.4,16.0,28.97,SSE,157,0.0,2.0,79,0.00,,,0.00,Rainwise IP-100,2013-02-08 13:25:00,
2013-02-08 08:30:00,21.4,16.0,28.97,ESE,112,0.0,4.0,81,0.00,,,0.00,Rainwise IP-100,2013-02-08 13:30:00,
2013-02-08 08:35:00,21.4,16.0,28.97,ESE,112,2.0,4.0,81,0.00,,,0.00,Rainwise IP-100,2013-02-08 13:35:00,
2013-02-08 08:40:00,21.5,18.0,28.96,ESE,112,1.0,3.0,80,0.00,,,0.00,Rainwise IP-100,2013-02-08 13:40:00,
2013-02-08 08:45:00,21.6,18.0,28.96,ESE,112,2.0,3.0,82,0.00,,,0.00,Rainwise IP-100,2013-02-08 13:45:00,
2013-02-08 08:50:00,21.7,18.0,28.95,East,90,2.0,4.0,83,0.00,,,0.00,Rainwise IP-100,2013-02-08 13:50:00,
2013-02-08 08:55:00,21.8,18.0,28.95,East,90,0.0,4.0,82,0.00,,,0.00,Rainwise IP-100,2013-02-08 13:55:00,
2013-02-08 09:00:00,21.9,18.0,28.94,ESE,112,2.0,2.0,82,0.00,,,0.00,Rainwise IP-100,2013-02-08 14:00:00,
2013-02-08 09:05:00,21.8,18.0,28.94,ESE,112,1.0,4.0,82,0.00,,,0.00,Rainwise IP-100,2013-02-08 14:05:00,
2013-02-08 09:10:00,21.8,18.0,28.94,ESE,112,0.0,3.0,82,0.00,,,0.00,Rainwise IP-100,2013-02-08 14:10:00,
2013-02-08 09:15:00,21.9,18.0,28.94,ESE,112,0.0,3.0,82,0.00,,,0.00,Rainwise IP-100,2013-02-08 14:15:00,
2013-02-08 09:20:00,21.9,18.0,28.94,ESE,112,0.0,3.0,84,0.00,,,0.00,Rainwise IP-100,2013-02-08 14:20:00,
2013-02-08 09:25:00,22.0,18.0,28.94,ESE,112,3.0,4.0,85,0.00,,,0.00,Rainwise IP-100,2013-02-08 14:25:00,
2013-02-08 09:30:00,22.1,18.0,28.94,ESE,112,0.0,4.0,84,0.00,,,0.00,Rainwise IP-100,2013-02-08 14:30:00,
2013-02-08 09:35:00,22.1,18.0,28.94,ESE,112,0.0,0.0,84,0.00,,,0.00,Rainwise IP-100,2013-02-08 14:35:00,
2013-02-08 09:40:00,22.2,18.0,28.95,SSE,157,0.0,3.0,84,0.00,,,0.00,Rainwise IP-100,2013-02-08 14:40:00,
2013-02-08 09:45:00,22.2,18.0,28.94,South,180,0.0,3.0,85,0.00,,,0.00,Rainwise IP-100,2013-02-08 14:45:00,
2013-02-08 09:50:00,22.2,18.0,28.94,ENE,67,0.0,4.0,85,0.00,,,0.00,Rainwise IP-100,2013-02-08 14:50:00,
2013-02-08 09:55:00,22.2,18.0,28.94,ENE,67,0.0,3.0,87,0.00,,,0.00,Rainwise IP-100,2013-02-08 14:55:00,
2013-02-08 10:00:00,22.2,18.0,28.94,ESE,112,0.0,5.0,87,0.00,,,0.00,Rainwise IP-100,2013-02-08 15:00:00,
2013-02-08 10:05:00,22.3,21.0,28.94,North,360,0.0,3.0,88,0.00,,,0.00,Rainwise IP-100,2013-02-08 15:05:00,
2013-02-08 10:10:00,22.3,21.0,28.94,East,90,0.0,3.0,89,0.00,,,0.00,Rainwise IP-100,2013-02-08 15:10:00,
2013-02-08 10:15:00,22.4,21.0,28.94,ESE,112,3.0,3.0,89,0.00,,,0.00,Rainwise IP-100,2013-02-08 15:15:00,
2013-02-08 10:20:00,22.3,21.0,28.94,ENE,67,1.0,5.0,90,0.00,,,0.00,Rainwise IP-100,2013-02-08 15:20:00,
2013-02-08 10:25:00,22.4,21.0,28.94,SE,135,1.0,5.0,90,0.00,,,0.00,Rainwise IP-100,2013-02-08 15:25:00,
2013-02-08 10:30:00,22.3,21.0,28.93,East,90,3.0,6.0,91,0.00,,,0.00,Rainwise IP-100,2013-02-08 15:30:00,
2013-02-08 10:35:00,22.3,21.0,28.94,East,90,1.0,4.0,91,0.00,,,0.00,Rainwise IP-100,2013-02-08 15:35:00,
2013-02-08 10:40:00,22.3,21.0,28.93,SE,135,1.0,3.0,92,0.00,,,0.00,Rainwise IP-100,2013-02-08 15:40:00,
2013-02-08 10:45:00,22.3,21.0,28.93,ESE,112,1.0,4.0,94,0.00,,,0.00,Rainwise IP-100,2013-02-08 15:45:00,
2013-02-08 10:50:00,22.3,21.0,28.93,East,90,3.0,3.0,94,0.00,,,0.00,Rainwise IP-100,2013-02-08 15:50:00,
2013-02-08 10:55:00,22.2,21.0,28.92,NE,45,0.0,6.0,94,0.00,,,0.00,Rainwise IP-100,2013-02-08 15:55:00,
2013-02-08 11:00:00,22.3,21.0,28.92,East,90,0.0,2.0,94,0.00,,,0.00,Rainwise IP-100,2013-02-08 16:00:00,
2013-02-08 11:05:00,22.3,21.0,28.92,East,90,1.0,4.0,95,0.00,,,0.00,Rainwise IP-100,2013-02-08 16:05:00,
2013-02-08 11:10:00,22.4,23.0,28.91,SE,135,0.0,5.0,96,0.00,,,0.00,Rainwise IP-100,2013-02-08 16:10:00,
2013-02-08 11:15:00,22.5,23.0,28.91,South,180,1.0,4.0,97,0.00,,,0.00,Rainwise IP-100,2013-02-08 16:15:00,
2013-02-08 11:20:00,22.5,23.0,28.90,ENE,67,0.0,3.0,97,0.00,,,0.00,Rainwise IP-100,2013-02-08 16:20:00,
2013-02-08 11:25:00,22.5,23.0,28.90,ESE,112,0.0,6.0,99,0.00,,,0.00,Rainwise IP-100,2013-02-08 16:25:00,
2013-02-08 11:30:00,22.6,23.0,28.90,ESE,112,3.0,3.0,99,0.00,,,0.00,Rainwise IP-100,2013-02-08 16:30:00,
2013-02-08 11:35:00,22.6,23.0,28.89,West,270,0.0,5.0,99,0.00,,,0.00,Rainwise IP-100,2013-02-08 16:35:00,
2013-02-08 11:40:00,22.7,23.0,28.88,ESE,112,2.0,6.0,99,0.00,,,0.00,Rainwise IP-100,2013-02-08 16:40:00,
2013-02-08 11:45:00,22.7,23.0,28.88,ENE,67,1.0,4.0,99,0.00,,,0.00,Rainwise IP-100,2013-02-08 16:45:00,
2013-02-08 11:50:00,22.7,23.0,28.87,ENE,67,1.0,6.0,99,0.00,,,0.00,Rainwise IP-100,2013-02-08 16:50:00,
2013-02-08 11:55:00,22.8,23.0,28.87,SSE,157,0.0,5.0,99,0.00,,,0.00,Rainwise IP-100,2013-02-08 16:55:00,
2013-02-08 12:00:00,22.8,23.0,28.87,East,90,1.0,5.0,99,0.00,,,0.00,Rainwise IP-100,2013-02-08 17:00:00,
2013-02-08 12:05:00,22.8,23.0,28.86,South,180,3.0,6.0,99,0.00,,,0.00,Rainwise IP-100,2013-02-08 17:05:00,
2013-02-08 12:10:00,22.9,23.0,28.86,ENE,67,0.0,6.0,98,0.00,,,0.00,Rainwise IP-100,2013-02-08 17:10:00,
2013-02-08 12:15:00,22.8,23.0,28.86,East,90,4.0,6.0,98,0.00,,,0.00,Rainwise IP-100,2013-02-08 17:15:00,
2013-02-08 12:20:00,22.5,23.0,28.85,ESE,112,0.0,5.0,99,0.00,,,0.00,Rainwise IP-100,2013-02-08 17:20:00,
2013-02-08 12:25:00,22.4,23.0,28.85,ENE,67,1.0,6.0,99,0.00,,,0.00,Rainwise IP-100,2013-02-08 17:25:00,
2013-02-08 12:30:00,22.3,23.0,28.85,South,180,4.0,6.0,99,0.00,,,0.00,Rainwise IP-100,2013-02-08 17:30:00,
2013-02-08 12:35:00,22.1,23.0,28.84,South,180,0.0,7.0,100,0.00,,,0.00,Rainwise IP-100,2013-02-08 17:35:00,
2013-02-08 12:40:00,22.2,23.0,28.83,East,90,0.0,4.0,100,0.00,,,0.00,Rainwise IP-100,2013-02-08 17:40:00,
2013-02-08 12:45:00,22.2,23.0,28.83,SSE,157,6.0,7.0,99,0.00,,,0.00,Rainwise IP-100,2013-02-08 17:45:00,
2013-02-08 12:50:00,21.9,23.0,28.83,East,90,2.0,6.0,99,0.00,,,0.00,Rainwise IP-100,2013-02-08 17:50:00,
2013-02-08 12:55:00,21.7,23.0,28.83,ENE,67,5.0,6.0,100,0.00,,,0.00,Rainwise IP-100,2013-02-08 17:55:00,
2013-02-08 13:00:00,21.8,23.0,28.83,ENE,67,1.0,6.0,99,0.00,,,0.00,Rainwise IP-100,2013-02-08 18:00:00,
2013-02-08 13:05:00,21.8,23.0,28.83,ESE,112,0.0,4.0,99,0.00,,,0.00,Rainwise IP-100,2013-02-08 18:05:00,
2013-02-08 13:10:00,21.6,23.0,28.82,ENE,67,2.0,6.0,99,0.00,,,0.00,Rainwise IP-100,2013-02-08 18:10:00,
2013-02-08 13:15:00,21.7,23.0,28.82,East,90,0.0,6.0,99,0.00,,,0.00,Rainwise IP-100,2013-02-08 18:15:00,
2013-02-08 13:20:00,21.6,23.0,28.81,East,90,1.0,5.0,99,0.00,,,0.00,Rainwise IP-100,2013-02-08 18:20:00,
2013-02-08 13:25:00,21.8,23.0,28.81,West,270,0.0,6.0,99,0.00,,,0.00,Rainwise IP-100,2013-02-08 18:25:00,
2013-02-08 13:30:00,21.8,23.0,28.81,South,180,2.0,6.0,98,0.00,,,0.00,Rainwise IP-100,2013-02-08 18:30:00,
2013-02-08 13:35:00,21.8,23.0,28.80,East,90,3.0,6.0,97,0.00,,,0.00,Rainwise IP-100,2013-02-08 18:35:00,
2013-02-08 13:40:00,21.7,23.0,28.79,ENE,67,3.0,7.0,98,0.00,,,0.00,Rainwise IP-100,2013-02-08 18:40:00,
2013-02-08 13:45:00,21.6,23.0,28.79,ESE,112,2.0,6.0,97,0.00,,,0.00,Rainwise IP-100,2013-02-08 18:45:00,
2013-02-08 13:50:00,21.8,23.0,28.79,East,90,5.0,6.0,98,0.00,,,0.00,Rainwise IP-100,2013-02-08 18:50:00,
2013-02-08 13:56:00,21.9,23.0,28.78,SSE,157,0.0,6.0,97,0.00,,,0.00,Rainwise IP-100,2013-02-08 18:56:00,
2013-02-08 14:01:00,21.9,23.0,28.77,ENE,67,0.0,6.0,97,0.00,,,0.00,Rainwise IP-100,2013-02-08 19:01:00,
2013-02-08 14:06:00,21.8,23.0,28.77,East,90,6.0,7.0,96,0.00,,,0.00,Rainwise IP-100,2013-02-08 19:06:00,
2013-02-08 14:11:00,21.8,23.0,28.77,SSE,157,1.0,7.0,97,0.00,,,0.00,Rainwise IP-100,2013-02-08 19:11:00,
2013-02-08 14:16:00,21.9,23.0,28.77,South,180,1.0,6.0,97,0.00,,,0.00,Rainwise IP-100,2013-02-08 19:16:00,
2013-02-08 14:21:00,21.9,23.0,28.77,WSW,247,2.0,4.0,97,0.00,,,0.00,Rainwise IP-100,2013-02-08 19:21:00,
2013-02-08 14:26:00,21.9,23.0,28.77,South,180,2.0,6.0,98,0.00,,,0.00,Rainwise IP-100,2013-02-08 19:26:00,
2013-02-08 14:31:00,21.9,23.0,28.77,South,180,2.0,5.0,97,0.00,,,0.00,Rainwise IP-100,2013-02-08 19:31:00,
2013-02-08 14:36:00,21.8,23.0,28.76,ENE,67,1.0,8.0,98,0.00,,,0.00,Rainwise IP-100,2013-02-08 19:36:00,
2013-02-08 14:41:00,21.7,23.0,28.76,ENE,67,2.0,6.0,100,0.00,,,0.00,Rainwise IP-100,2013-02-08 19:41:00,
2013-02-08 14:46:00,21.7,23.0,28.75,ESE,112,2.0,7.0,99,0.00,,,0.00,Rainwise IP-100,2013-02-08 19:46:00,
2013-02-08 14:51:00,21.6,23.0,28.75,SSE,157,3.0,7.0,99,0.00,,,0.00,Rainwise IP-100,2013-02-08 19:51:00,
2013-02-08 14:56:00,21.6,23.0,28.75,SSE,157,2.0,6.0,99,0.00,,,0.00,Rainwise IP-100,2013-02-08 19:56:00,
2013-02-08 15:01:00,21.6,23.0,28.75,SSE,157,2.0,8.0,99,0.00,,,0.00,Rainwise IP-100,2013-02-08 20:01:00,
2013-02-08 15:06:00,21.5,23.0,28.75,SE,135,5.0,6.0,99,0.00,,,0.00,Rainwise IP-100,2013-02-08 20:06:00,
2013-02-08 15:11:00,21.3,21.0,28.75,East,90,0.0,6.0,100,0.00,,,0.00,Rainwise IP-100,2013-02-08 20:11:00,
2013-02-08 15:16:00,21.2,21.0,28.74,SSE,157,3.0,6.0,100,0.00,,,0.00,Rainwise IP-100,2013-02-08 20:16:00,
2013-02-08 15:21:00,21.1,21.0,28.75,NE,45,1.0,7.0,100,0.00,,,0.00,Rainwise IP-100,2013-02-08 20:21:00,
2013-02-08 15:26:00,21.1,21.0,28.74,East,90,4.0,6.0,100,0.00,,,0.00,Rainwise IP-100,2013-02-08 20:26:00,
2013-02-08 15:31:00,20.9,21.0,28.74,ENE,67,1.0,6.0,100,0.00,,,0.00,Rainwise IP-100,2013-02-08 20:31:00,
2013-02-08 15:36:00,20.9,21.0,28.74,South,180,1.0,6.0,100,0.00,,,0.00,Rainwise IP-100,2013-02-08 20:36:00,
2013-02-08 15:41:00,20.8,21.0,28.74,ENE,67,3.0,6.0,100,0.00,,,0.00,Rainwise IP-100,2013-02-08 20:41:00,
2013-02-08 15:46:00,20.6,21.0,28.73,SSE,157,3.0,5.0,100,0.00,,,0.00,Rainwise IP-100,2013-02-08 20:46:00,
2013-02-08 15:51:00,20.6,21.0,28.73,ESE,112,1.0,6.0,100,0.00,,,0.00,Rainwise IP-100,2013-02-08 20:51:00,
2013-02-08 15:56:00,20.5,21.0,28.72,WSW,247,0.0,6.0,100,0.00,,,0.00,Rainwise IP-100,2013-02-08 20:56:00,
2013-02-08 16:01:00,20.3,21.0,28.72,WNW,292,3.0,6.0,100,0.00,,,0.00,Rainwise IP-100,2013-02-08 21:01:00,
2013-02-08 16:06:00,20.2,21.0,28.72,ENE,67,2.0,10.0,100,0.00,,,0.00,Rainwise IP-100,2013-02-08 21:06:00,
2013-02-08 16:11:00,20.2,21.0,28.71,NNW,337,1.0,9.0,100,0.00,,,0.00,Rainwise IP-100,2013-02-08 21:11:00,
2013-02-08 16:16:00,20.2,21.0,28.71,ENE,67,0.0,6.0,100,0.00,,,0.00,Rainwise IP-100,2013-02-08 21:16:00,
2013-02-08 16:21:00,20.1,21.0,28.71,ENE,67,2.0,6.0,100,0.00,,,0.00,Rainwise IP-100,2013-02-08 21:21:00,
2013-02-08 16:26:00,20.1,21.0,28.70,East,90,4.0,7.0,100,0.00,,,0.00,Rainwise IP-100,2013-02-08 21:26:00,
2013-02-08 16:31:00,20.1,21.0,28.70,WSW,247,1.0,6.0,100,0.00,,,0.00,Rainwise IP-100,2013-02-08 21:31:00,
2013-02-08 16:36:00,20.1,21.0,28.70,ENE,67,3.0,6.0,100,0.00,,,0.00,Rainwise IP-100,2013-02-08 21:36:00,
2013-02-08 16:41:00,19.9,21.0,28.70,WSW,247,2.0,7.0,100,0.00,,,0.00,Rainwise IP-100,2013-02-08 21:41:00,
2013-02-08 16:46:00,19.9,21.0,28.69,East,90,8.0,9.0,100,0.00,,,0.00,Rainwise IP-100,2013-02-08 21:46:00,
2013-02-08 16:51:00,19.8,21.0,28.69,East,90,0.0,8.0,100,0.00,,,0.00,Rainwise IP-100,2013-02-08 21:51:00,
2013-02-08 16:56:00,19.7,21.0,28.69,ENE,67,0.0,6.0,100,0.00,,,0.00,Rainwise IP-100,2013-02-08 21:56:00,
2013-02-08 17:01:00,19.6,21.0,28.68,South,180,3.0,7.0,100,0.00,,,0.00,Rainwise IP-100,2013-02-08 22:01:00,
2013-02-08 17:06:00,19.6,21.0,28.68,ENE,67,5.0,7.0,100,0.00,,,0.00,Rainwise IP-100,2013-02-08 22:06:00,
2013-02-08 17:11:00,19.5,21.0,28.68,ESE,112,1.0,7.0,100,0.00,,,0.00,Rainwise IP-100,2013-02-08 22:11:00,
2013-02-08 17:16:00,19.4,21.0,28.68,East,90,3.0,11.0,100,0.00,,,0.00,Rainwise IP-100,2013-02-08 22:16:00,
2013-02-08 17:21:00,19.4,21.0,28.67,ENE,67,6.0,6.0,100,0.00,,,0.00,Rainwise IP-100,2013-02-08 22:21:00,
2013-02-08 17:26:00,19.2,21.0,28.67,East,90,2.0,8.0,100,0.00,,,0.00,Rainwise IP-100,2013-02-08 22:26:00,
2013-02-08 17:31:00,19.3,21.0,28.67,East,90,0.0,6.0,100,0.00,,,0.00,Rainwise IP-100,2013-02-08 22:31:00,
2013-02-08 17:36:00,19.1,21.0,28.67,SE,135,2.0,8.0,100,0.00,,,0.00,Rainwise IP-100,2013-02-08 22:36:00,
2013-02-08 17:41:00,19.1,21.0,28.67,ENE,67,5.0,9.0,100,0.00,,,0.00,Rainwise IP-100,2013-02-08 22:41:00,
2013-02-08 17:46:00,19.0,21.0,28.66,ESE,112,2.0,5.0,100,0.00,,,0.00,Rainwise IP-100,2013-02-08 22:46:00,
2013-02-08 17:51:00,19.0,21.0,28.66,East,90,1.0,7.0,100,0.00,,,0.00,Rainwise IP-100,2013-02-08 22:51:00,
2013-02-08 17:56:00,18.9,21.0,28.66,ENE,67,4.0,8.0,100,0.00,,,0.00,Rainwise IP-100,2013-02-08 22:56:00,
2013-02-08 18:01:00,18.9,21.0,28.66,ESE,112,4.0,10.0,100,0.00,,,0.00,Rainwise IP-100,2013-02-08 23:01:00,
2013-02-08 18:06:00,18.9,21.0,28.66,NE,45,0.0,5.0,100,0.00,,,0.00,Rainwise IP-100,2013-02-08 23:06:00,
2013-02-08 18:11:00,18.9,21.0,28.65,South,180,3.0,6.0,100,0.00,,,0.00,Rainwise IP-100,2013-02-08 23:11:00,
2013-02-08 18:16:00,18.8,21.0,28.65,ENE,67,4.0,7.0,100,0.00,,,0.00,Rainwise IP-100,2013-02-08 23:16:00,
2013-02-08 18:21:00,18.7,21.0,28.65,East,90,5.0,9.0,100,0.00,,,0.00,Rainwise IP-100,2013-02-08 23:21:00,
2013-02-08 18:26:00,18.7,21.0,28.64,East,90,0.0,6.0,100,0.00,,,0.00,Rainwise IP-100,2013-02-08 23:26:00,
2013-02-08 18:31:00,18.6,21.0,28.64,SSE,157,1.0,6.0,100,0.00,,,0.00,Rainwise IP-100,2013-02-08 23:31:00,
2013-02-08 18:36:00,18.6,21.0,28.64,East,90,6.0,7.0,100,0.00,,,0.00,Rainwise IP-100,2013-02-08 23:36:00,
2013-02-08 18:41:00,18.5,21.0,28.64,ENE,67,7.0,7.0,100,0.00,,,0.00,Rainwise IP-100,2013-02-08 23:41:00,
2013-02-08 18:46:00,18.4,18.0,28.64,SSE,157,0.0,7.0,100,0.00,,,0.00,Rainwise IP-100,2013-02-08 23:46:00,
2013-02-08 18:51:00,18.3,18.0,28.64,West,270,1.0,7.0,100,0.00,,,0.00,Rainwise IP-100,2013-02-08 23:51:00,
2013-02-08 18:56:00,18.3,18.0,28.64,East,90,2.0,6.0,100,0.00,,,0.00,Rainwise IP-100,2013-02-08 23:56:00,
2013-02-08 19:01:00,18.3,18.0,28.64,ENE,67,4.0,6.0,100,0.00,,,0.00,Rainwise IP-100,2013-02-09 00:01:00,
2013-02-08 19:06:00,18.2,18.0,28.64,SSE,157,3.0,7.0,100,0.00,,,0.00,Rainwise IP-100,2013-02-09 00:06:00,
2013-02-08 19:11:00,18.1,18.0,28.63,ESE,112,2.0,7.0,100,0.00,,,0.00,Rainwise IP-100,2013-02-09 00:11:00,
2013-02-08 19:16:00,18.2,18.0,28.62,SSE,157,5.0,6.0,100,0.00,,,0.00,Rainwise IP-100,2013-02-09 00:16:00,
2013-02-08 19:21:00,18.1,18.0,28.62,ENE,67,1.0,6.0,100,0.00,,,0.00,Rainwise IP-100,2013-02-09 00:21:00,
2013-02-08 19:26:00,18.0,18.0,28.61,East,90,2.0,6.0,100,0.00,,,0.00,Rainwise IP-100,2013-02-09 00:26:00,
2013-02-08 19:31:00,18.0,18.0,28.61,NE,45,1.0,6.0,100,0.00,,,0.00,Rainwise IP-100,2013-02-09 00:31:00,
2013-02-08 19:36:00,17.9,18.0,28.61,ESE,112,1.0,6.0,100,0.00,,,0.00,Rainwise IP-100,2013-02-09 00:36:00,
2013-02-08 19:41:00,17.9,18.0,28.61,ENE,67,4.0,8.0,100,0.00,,,0.00,Rainwise IP-100,2013-02-09 00:41:00,
2013-02-08 19:46:00,17.9,18.0,28.61,East,90,1.0,7.0,100,0.00,,,0.00,Rainwise IP-100,2013-02-09 00:46:00,
2013-02-08 19:51:00,17.9,18.0,28.60,SE,135,2.0,8.0,100,0.00,,,0.00,Rainwise IP-100,2013-02-09 00:51:00,
2013-02-08 19:56:00,17.8,18.0,28.60,East,90,3.0,9.0,100,0.00,,,0.00,Rainwise IP-100,2013-02-09 00:56:00,
2013-02-08 20:01:00,17.8,18.0,28.60,SE,135,6.0,9.0,100,0.00,,,0.00,Rainwise IP-100,2013-02-09 01:01:00,
2013-02-08 20:06:00,17.8,18.0,28.60,East,90,1.0,7.0,100,0.00,,,0.00,Rainwise IP-100,2013-02-09 01:06:00,
2013-02-08 20:11:00,17.8,18.0,28.59,NE,45,1.0,6.0,100,0.00,,,0.00,Rainwise IP-100,2013-02-09 01:11:00,
2013-02-08 20:16:00,17.7,18.0,28.59,South,180,2.0,8.0,100,0.00,,,0.00,Rainwise IP-100,2013-02-09 01:16:00,
2013-02-08 20:21:00,17.7,18.0,28.58,SSE,157,0.0,7.0,100,0.00,,,0.00,Rainwise IP-100,2013-02-09 01:21:00,
2013-02-08 20:26:00,17.7,18.0,28.58,East,90,6.0,6.0,100,0.00,,,0.00,Rainwise IP-100,2013-02-09 01:26:00,
2013-02-08 20:31:00,17.6,18.0,28.58,East,90,4.0,9.0,100,0.00,,,0.00,Rainwise IP-100,2013-02-09 01:31:00,
2013-02-08 20:36:00,17.6,18.0,28.57,ESE,112,2.0,8.0,100,0.00,,,0.00,Rainwise IP-100,2013-02-09 01:36:00,
2013-02-08 20:41:00,17.6,18.0,28.58,East,90,0.0,9.0,100,0.00,,,0.00,Rainwise IP-100,2013-02-09 01:41:00,
2013-02-08 20:46:00,17.6,18.0,28.57,SSW,202,0.0,6.0,100,0.00,,,0.00,Rainwise IP-100,2013-02-09 01:46:00,
2013-02-08 20:51:00,17.6,18.0,28.57,ENE,67,0.0,9.0,100,0.00,,,0.00,Rainwise IP-100,2013-02-09 01:51:00,
2013-02-08 20:56:00,17.6,18.0,28.56,ENE,67,6.0,7.0,100,0.00,,,0.00,Rainwise IP-100,2013-02-09 01:56:00,
2013-02-08 21:01:00,17.5,18.0,28.56,ENE,67,0.0,9.0,100,0.00,,,0.00,Rainwise IP-100,2013-02-09 02:01:00,
2013-02-08 21:06:00,17.5,18.0,28.56,ENE,67,5.0,6.0,100,0.00,,,0.00,Rainwise IP-100,2013-02-09 02:06:00,
2013-02-08 21:11:00,17.4,18.0,28.55,ESE,112,5.0,6.0,100,0.00,,,0.00,Rainwise IP-100,2013-02-09 02:11:00,
2013-02-08 21:16:00,17.4,18.0,28.56,East,90,0.0,8.0,100,0.00,,,0.00,Rainwise IP-100,2013-02-09 02:16:00,
2013-02-08 21:21:00,17.3,18.0,28.55,East,90,2.0,8.0,100,0.00,,,0.00,Rainwise IP-100,2013-02-09 02:21:00,
2013-02-08 21:26:00,17.2,18.0,28.55,SE,135,0.0,9.0,100,0.00,,,0.00,Rainwise IP-100,2013-02-09 02:26:00,
2013-02-08 21:31:00,17.2,18.0,28.54,East,90,3.0,9.0,100,0.00,,,0.00,Rainwise IP-100,2013-02-09 02:31:00,
2013-02-08 21:36:00,17.1,18.0,28.54,ENE,67,1.0,7.0,100,0.00,,,0.00,Rainwise IP-100,2013-02-09 02:36:00,
2013-02-08 21:41:00,17.0,18.0,28.53,East,90,1.0,7.0,100,0.00,,,0.00,Rainwise IP-100,2013-02-09 02:41:00,
2013-02-08 21:46:00,16.9,18.0,28.53,SE,135,2.0,10.0,100,0.00,,,0.00,Rainwise IP-100,2013-02-09 02:46:00,
2013-02-08 21:51:00,16.9,18.0,28.52,NE,45,1.0,7.0,100,0.00,,,0.00,Rainwise IP-100,2013-02-09 02:51:00,
2013-02-08 21:56:00,16.9,18.0,28.52,East,90,0.0,7.0,100,0.00,,,0.00,Rainwise IP-100,2013-02-09 02:56:00,
2013-02-08 22:01:00,16.8,18.0,28.51,ENE,67,3.0,7.0,100,0.00,,,0.00,Rainwise IP-100,2013-02-09 03:01:00,
2013-02-08 22:06:00,16.8,18.0,28.51,North,360,1.0,6.0,100,0.00,,,0.00,Rainwise IP-100,2013-02-09 03:06:00,
2013-02-08 22:11:00,16.7,18.0,28.51,ESE,112,0.0,7.0,100,0.00,,,0.00,Rainwise IP-100,2013-02-09 03:11:00,
2013-02-08 22:16:00,16.7,18.0,28.50,East,90,2.0,7.0,100,0.00,,,0.00,Rainwise IP-100,2013-02-09 03:16:00,
2013-02-08 22:21:00,16.6,18.0,28.50,ENE,67,3.0,7.0,100,0.00,,,0.00,Rainwise IP-100,2013-02-09 03:21:00,
2013-02-08 22:26:00,16.6,18.0,28.49,ENE,67,6.0,6.0,100,0.00,,,0.00,Rainwise IP-100,2013-02-09 03:26:00,
2013-02-08 22:31:00,16.5,18.0,28.49,North,360,0.0,8.0,100,0.00,,,0.00,Rainwise IP-100,2013-02-09 03:31:00,
2013-02-08 22:36:00,16.4,16.0,28.49,South,180,1.0,7.0,100,0.00,,,0.00,Rainwise IP-100,2013-02-09 03:36:00,
2013-02-08 22:41:00,16.4,16.0,28.48,ENE,67,5.0,9.0,100,0.00,,,0.00,Rainwise IP-100,2013-02-09 03:41:00,
2013-02-08 22:46:00,16.3,16.0,28.48,SSE,157,1.0,8.0,100,0.00,,,0.00,Rainwise IP-100,2013-02-09 03:46:00,
2013-02-08 22:51:00,16.3,16.0,28.48,ESE,112,9.0,12.0,100,0.00,,,0.00,Rainwise IP-100,2013-02-09 03:51:00,
2013-02-08 22:56:00,16.3,16.0,28.48,East,90,5.0,11.0,100,0.00,,,0.00,Rainwise IP-100,2013-02-09 03:56:00,
2013-02-08 23:01:00,16.2,16.0,28.48,ENE,67,7.0,7.0,100,0.00,,,0.00,Rainwise IP-100,2013-02-09 04:01:00,
2013-02-08 23:06:00,16.2,16.0,28.48,ENE,67,5.0,9.0,100,0.00,,,0.00,Rainwise IP-100,2013-02-09 04:06:00,
2013-02-08 23:11:00,16.2,16.0,28.47,ESE,112,5.0,12.0,100,0.00,,,0.00,Rainwise IP-100,2013-02-09 04:11:00,
2013-02-08 23:16:00,16.2,16.0,28.46,East,90,2.0,10.0,100,0.00,,,0.00,Rainwise IP-100,2013-02-09 04:16:00,
2013-02-08 23:21:00,16.2,16.0,28.47,SE,135,4.0,8.0,100,0.00,,,0.00,Rainwise IP-100,2013-02-09 04:21:00,
2013-02-08 23:26:00,16.2,16.0,28.47,East,90,3.0,9.0,100,0.00,,,0.00,Rainwise IP-100,2013-02-09 04:26:00,
2013-02-08 23:31:00,16.2,16.0,28.47,NE,45,0.0,7.0,100,0.00,,,0.00,Rainwise IP-100,2013-02-09 04:31:00,
2013-02-08 23:36:00,16.2,16.0,28.47,East,90,2.0,9.0,100,0.00,,,0.00,Rainwise IP-100,2013-02-09 04:36:00,
2013-02-08 23:41:00,16.2,16.0,28.47,NNW,337,0.0,7.0,100,0.00,,,0.00,Rainwise IP-100,2013-02-09 04:41:00,
2013-02-08 23:46:00,16.2,16.0,28.47,SSE,157,0.0,5.0,100,0.00,,,0.00,Rainwise IP-100,2013-02-09 04:46:00,
2013-02-08 23:51:00,16.2,16.0,28.48,ESE,112,2.0,6.0,100,0.00,,,0.00,Rainwise IP-100,2013-02-09 04:51:00,
2013-02-08 23:56:00,16.2,16.0,28.48,East,90,2.0,9.0,100,0.00,,,0.00,Rainwise IP-100,2013-02-09 04:56:00,